sanya , China , ASIA

  • Wednesday
    October 23

    Cloudy  Cloudy

    86 °F  73 °F

    Southeast  Northeast

    3~4L   3~4L 

  • Thursday
    October 24

    Cloudy  Cloudy

    86 °F  75 °F

    East  Northeast

    3~4L   3~4L 

  • Friday
    October 25

    Light rain  Light rain

    86 °F  75 °F

    East  Northeast

    3~4L   3~4L 

  • Saturday
    October 26

    Light rain  Light rain

    86 °F  75 °F

    East  Northeast

    3~4L   3~4L 

  • Sunday
    October 27

    Cloudy  Sunny

    84 °F  75 °F

    East  No wind

    3~4L    

  • Monday
    October 28

    Light rain  Light rain

    84 °F  75 °F

    East  No wind

    3~4L    

  • Tuesday
    October 29

    Cloudy  Cloudy

    82 °F  73 °F

    No wind  No wind

        

Date   Weather Temperature Humidity Total_rain Visibility Wind
11:00 Cloudy 84°F 85.7% 0mm 999.9km Southeast  3.8m/s
14:00 Cloudy 86°F 87.5% 0mm 999.9km Southeast  4.4m/s
17:00 Cloudy 81°F 89.2% 0mm 999.9km Southeast  4.6m/s
20:00 Cloudy 78°F 91.4% 0mm 999.9km Southeast  4.5m/s
23:00 Cloudy 77°F 93.6% 0mm 999.9km Northeast  4.9m/s
02:00 Cloudy 75°F 94.8% 0mm 999.9km Southeast  4.7m/s
05:00 Cloudy 75°F 93.8% 0mm 999.9km Northeast  4.7m/s
08:00 Cloudy 78°F 90.8% 0mm 999.9km Northeast  4.2m/s
11:00 Cloudy 85°F 85.1% 0mm 999.9km Northeast  4.1m/s
14:00 Cloudy 86°F 85.4% 0mm 999.9km Northeast  4.8m/s
17:00 Cloudy 83°F 92.1% 0mm 999.9km Northeast  4.6m/s
20:00 Cloudy 78°F 92.8% 0mm 999.9km Northeast  5.8m/s
23:00 Cloudy 77°F 93.5% 0mm 999.9km Northeast  5.5m/s
02:00 Cloudy 76°F 95.5% 0mm 999.9km Northeast  6.8m/s
05:00 Cloudy 76°F 95.6% 0mm 999.9km Northeast  6.5m/s
08:00 Cloudy 81°F 93.3% 0mm 999.9km Northeast  7.0m/s
11:00 Light rain 85°F 89% 0.1mm 999.9km Northeast  6.9m/s
14:00 Light rain 86°F 90% 0.2mm 999.9km Northeast  6.9m/s
17:00 Light rain 83°F 94.6% 1.6mm 999.9km Northeast  7.1m/s
20:00 Light rain 80°F 95.8% 0.6mm 999.9km Northeast  8.5m/s
23:00 Overcast 79°F 95.3% 0mm 999.9km Northeast  7.3m/s
02:00 Light rain 76°F 94.9% 0.8mm 999.9km Northeast  7.4m/s
05:00 Light rain 80°F 94.6% 1.3mm 999.9km Northeast  6.9m/s
08:00 Light rain 80°F 92.5% 2.2mm 999.9km Northeast  7.1m/s
11:00 Light rain 82°F 87.6% 1.6mm 999.9km Northeast  6.8m/s
14:00 Light rain 86°F 89.6% 1.1mm 999.9km Northeast  6.5m/s
17:00 Light rain 82°F 91.7% 1mm 999.9km Northeast  7.3m/s
20:00 Overcast 78°F 92.8% 0mm 999.9km Northeast  8.0m/s
23:00 Overcast 78°F 93.9% 0mm 999.9km Northeast  7.1m/s
02:00 Overcast 77°F 94.2% 0mm 999.9km Northeast  6.5m/s
05:00 Light rain 77°F 93.8% 0.5mm 999.9km Northeast  6.7m/s
08:00 Light rain 81°F 90.3% 0.2mm 999.9km Northeast  6.4m/s
11:00 Cloudy 84°F 86.3% 0mm 999.9km Northeast  6.0m/s
14:00 Cloudy 85°F 87.8% 0mm 999.9km Northeast  6.0m/s
17:00 Cloudy 84°F 92.2% 0mm 999.9km Northeast  6.1m/s
20:00 Cloudy 78°F 92.3% 0mm 999.9km Northeast  6.6m/s
23:00 Sunny 77°F 92.4% 0mm 999.9km Northeast  6.5m/s
02:00 Sunny 76°F 95.3% 0mm 999.9km Northeast  6.2m/s
05:00 Sunny 76°F 91.3% 0mm 999.9km Northeast  6.0m/s
08:00 Sunny 80°F 81% 0mm 999.9km Northeast  6.4m/s
11:00 Light rain 83°F 83.5% 0.2mm 999.9km Northeast  6.7m/s
14:00 Overcast 85°F 84.7% 0mm 999.9km Northeast  6.2m/s
17:00 Light rain 80°F 89.7% 0.1mm 999.9km Northeast  5.6m/s
20:00 Light rain 79°F 92.1% 0.6mm 999.9km Northeast  6.4m/s
23:00 Light rain 77°F 94.5% 0.1mm 999.9km Northeast  6.3m/s
02:00 Cloudy 76°F 96.7% 0mm 999.9km Northeast  6.5m/s
05:00 Light rain 76°F 94.5% 0.2mm 999.9km Northeast  6.2m/s
08:00 Light rain 78°F 92.5% 0.3mm 999.9km Northeast  5.2m/s
11:00 Cloudy 81°F 84.3% 0mm 999.9km Northeast  5.1m/s
14:00 Cloudy 84°F 87.1% 0mm 999.9km Northeast  5.1m/s
17:00 Cloudy 79°F 87.4% 0mm 999.9km Northeast  4.7m/s
20:00 Cloudy 78°F 89.5% 0mm 999.9km Northeast  5.6m/s
23:00 Cloudy 76°F 91.7% 0mm 999.9km Northeast  5.6m/s
02:00 Cloudy 75°F 95.7% 0mm 999.9km Northeast  5.3m/s
05:00 Cloudy 75°F 92.5% 0mm 999.9km Northeast  6.4m/s